Skip Page Navigation
NASA JPL Caltech
NASA Logo - Jet Propulsion Laboratory + View the NASA Portal
+ Center for Near-Earth Object Studies
JPL Home Earth Solar System Stars & Galaxies Technology
JPL Solar System Dynamics
BODIES ORBITS EPHEMERIDES TOOLS PHYSICAL DATA DISCOVERY FAQ SITE MAP
IMPORTANT: The SSD Announcement email list is now available. Major changes are coming in the near future, including possible hostname and/or URL changes. To be notified of such changes, subscribe to this email list.

Please visit this page for more details.


JPL Small-Body Database Browser
Search: [ help ]  
376827 (2001 FR113)
Classification: Main-belt Asteroid          SPK-ID: 2376827
Ephemeris | Orbit Diagram | Orbital Elements | Mission Design | Physical Parameters | Discovery Circumstances | Close-Approach Data ]

[ show orbit diagram ]
Orbital Elements at Epoch 2459000.5 (2020-May-31.0) TDB
Reference: JPL 14 (heliocentric ecliptic J2000)
 Element Value Uncertainty (1-sigma)   Units 
e .1539811642311281 5.3596e-08  
a 2.323615459304182 1.513e-08 au
q 1.965822445655077 1.1881e-07 au
i 3.923272420111959 5.3845e-06 deg
node 214.8676604042596 8.1273e-05 deg
peri 1.373853464645092 8.4626e-05 deg
M 124.7481021252377 2.153e-05 deg
tp 2458552.192237194583
(2019-Mar-09.69223719)
7.7092e-05 TDB
period 1293.733466565495
3.54
1.2636e-05
3.46e-08
d
yr
n .2782644256360629 2.7178e-09 deg/d
Q 2.681408472953288 1.7459e-08 au
  Orbit Determination Parameters
   # obs. used (total)      186  
   data-arc span      6728 days (18.42 yr)  
   first obs. used      2001-03-19  
   last obs. used      2019-08-20  
   planetary ephem.      DE431  
   SB-pert. ephem.      SB431-N16  
   condition code      0  
   norm. resid. RMS      .6147  
   source      ORB  
   producer      Otto Matic  
   solution date      2020-Feb-26 02:48:50  

Additional Information
 Earth MOID = .958807 au 
 Jupiter MOID = 2.28832 au 
 T_jup = 3.557 
[ show covariance matrix ]

Ephemeris | Orbit Diagram | Orbital Elements | Mission Design | Physical Parameters | Discovery Circumstances | Close-Approach Data ]

Physical Parameter Table
Parameter Symbol Value Units Sigma Reference Notes
absolute magnitude H 17.4   n/a MPO434331  

376827 (2001 FR113)          Discovered 2001-Mar-19 by LONEOS at Anderson Mesa
Reference: Last Updated: 2013-11-20

[ show close-approach data ]
Alternate Designations
 2001 FR113 = 2008 DD26 
Ephemeris | Orbit Diagram | Orbital Elements | Mission Design | Physical Parameters | Discovery Circumstances | Close-Approach Data ]
ABOUT SSD CREDITS/AWARDS PRIVACY/COPYRIGHT GLOSSARY LINKS
FirstGov 2020-Apr-07 12:00 UT
(server date/time)  
NASA Home Page
Site Manager:   Ryan S. Park
Webmaster  Alan B. Chamberlin